Back to catalog

WILDBLUE 1

AliveCommunicationsGEO
NORAD 29643·PAYLOAD·🇺🇸 United States

Launched Dec 8, 2006 from Guiana Space Centre

Loading…

TLE

FreshSource: Space-Track

Epoch: Sep 14, 2026, 13:59 UTC

1 29643U 06054A   26257.58316105  .00000055  00000-0  00000-0 0  9990
2 29643   3.0284  79.3060 0004756  93.1868  71.5428  0.99175296 54683

Track WILDBLUE 1 in real time with AllMySat

Download on the App Store